| time (UTC) | temp C | wind direction | speed KPH | gust KPH | rain 1hr cm | rain 24hr cm | rain mn cm | humidity % | barometer mb |
| 20260505041603 | 18 | 0 | 0.0 | 4.8 | 0.00 | 0.00 | 0.00 | 67 | 1007.2 |
| 20260505040100 | 18 | 0 | 0.0 | 9.7 | 0.00 | 0.00 | 0.00 | 67 | 1007.2 |
| 20260505034549 | 18 | 0 | 0.0 | 3.2 | 0.00 | 0.00 | 0.00 | 67 | 1007.1 |
| 20260505033054 | 18 | 0 | 0.0 | 6.4 | 0.00 | 0.00 | 0.00 | 67 | 1007.1 |
| 20260505031549 | 19 | 248 | 0.0 | 9.7 | 0.00 | 0.00 | 0.00 | 66 | 1007.1 |
| 20260505030052 | 19 | 0 | 0.0 | 4.8 | 0.00 | 0.00 | 0.00 | 66 | 1006.9 |
| 20260505024550 | 19 | 0 | 0.0 | 9.7 | 0.00 | 0.00 | 0.00 | 65 | 1006.7 |
| 20260505023053 | 19 | 0 | 1.6 | 14.5 | 0.00 | 0.00 | 0.00 | 65 | 1006.5 |
| 20260505021551 | 19 | 0 | 0.0 | 6.4 | 0.00 | 0.00 | 0.00 | 64 | 1006.3 |
| 20260505020049 | 20 | 156 | 0.0 | 8.0 | 0.00 | 0.00 | 0.00 | 63 | 1006.0 |
| 20260505014603 | 20 | 0 | 0.0 | 6.4 | 0.00 | 0.00 | 0.00 | 62 | 1006.0 |
| 20260505013051 | 20 | 0 | 0.0 | 6.4 | 0.00 | 0.00 | 0.00 | 61 | 1005.8 |
| 20260505011550 | 20 | 107 | 0.0 | 6.4 | 0.00 | 0.00 | 0.00 | 60 | 1005.7 |
| 20260505010055 | 20 | 0 | 0.0 | 6.4 | 0.00 | 0.00 | 0.00 | 59 | 1005.8 |
| 20260505004548 | 21 | 0 | 0.0 | 9.7 | 0.00 | 0.00 | 0.00 | 58 | 1005.7 |
| 20260505003047 | 21 | 0 | 1.6 | 8.0 | 0.00 | 0.00 | 0.00 | 57 | 1005.6 |
| 20260505001603 | 22 | 0 | 0.0 | 6.4 | 0.00 | 0.00 | 0.00 | 55 | 1005.8 |
| 20260505000107 | 22 | 0 | 0.0 | 6.4 | 0.00 | 0.00 | 0.00 | 54 | 1006.0 |
| 20260504234611 | 22 | 159 | 1.6 | 8.0 | 0.00 | 0.00 | 0.00 | 52 | 1006.2 |
| 20260504233050 | 23 | 0 | 0.0 | 6.4 | 0.00 | 0.00 | 0.00 | 50 | 1006.3 |
| 20260504231553 | 23 | 0 | 3.2 | 11.3 | 0.00 | 0.00 | 0.00 | 48 | 1006.6 |
| 20260504230050 | 23 | 150 | 1.6 | 27.4 | 0.00 | 0.00 | 0.00 | 48 | 1006.6 |
| 20260504224606 | 24 | 225 | 1.6 | 14.5 | 0.00 | 0.00 | 0.00 | 49 | 1006.6 |
| 20260504223047 | 24 | 270 | 4.8 | 22.5 | 0.00 | 0.00 | 0.00 | 48 | 1006.7 |
| 20260504221552 | 24 | 126 | 1.6 | 12.9 | 0.00 | 0.00 | 0.00 | 51 | 1006.6 |
| 20260504220058 | 23 | 0 | 0.0 | 14.5 | 0.00 | 0.00 | 0.00 | 53 | 1006.8 |
| 20260504214551 | 23 | 148 | 3.2 | 14.5 | 0.00 | 0.00 | 0.00 | 52 | 1006.7 |
| 20260504213109 | 24 | 161 | 1.6 | 11.3 | 0.00 | 0.00 | 0.00 | 52 | 1007.2 |
| 20260504211547 | 24 | 0 | 1.6 | 14.5 | 0.00 | 0.00 | 0.00 | 52 | 1007.2 |
| 20260504210049 | 25 | 342 | 1.6 | 12.9 | 0.00 | 0.00 | 0.00 | 52 | 1007.4 |
| 20260504204552 | 25 | 0 | 1.6 | 9.7 | 0.00 | 0.00 | 0.00 | 54 | 1007.5 |
| 20260504203112 | 24 | 184 | 0.0 | 12.9 | 0.00 | 0.00 | 0.00 | 56 | 1007.6 |
| 20260504201551 | 25 | 156 | 1.6 | 11.3 | 0.00 | 0.00 | 0.00 | 51 | 1007.9 |
| 20260504200049 | 24 | 171 | 1.6 | 11.3 | 0.00 | 0.00 | 0.00 | 51 | 1008.0 |
| 20260504194602 | 24 | 54 | 1.6 | 8.0 | 0.00 | 0.00 | 0.00 | 52 | 1008.3 |
| 20260504193057 | 23 | 0 | 0.0 | 11.3 | 0.00 | 0.00 | 0.00 | 60 | 1008.8 |
| 20260504191549 | 23 | 271 | 1.6 | 14.5 | 0.00 | 0.00 | 0.00 | 59 | 1008.9 |
| 20260504184605 | 21 | 0 | 3.2 | 11.3 | 0.00 | 0.00 | 0.00 | 62 | 1009.4 |
| 20260504183052 | 21 | 253 | 1.6 | 11.3 | 0.00 | 0.00 | 0.00 | 65 | 1009.2 |
| 20260504181549 | 20 | 151 | 4.8 | 17.7 | 0.00 | 0.00 | 0.00 | 65 | 1009.1 |
| 20260504180051 | 20 | 0 | 1.6 | 12.9 | 0.00 | 0.00 | 0.00 | 64 | 1008.9 |
| 20260504174555 | 20 | 219 | 8.0 | 22.5 | 0.00 | 0.00 | 0.00 | 63 | 1008.9 |
| 20260504173056 | 20 | 0 | 3.2 | 14.5 | 0.00 | 0.00 | 0.00 | 63 | 1008.9 |
| 20260504171552 | 20 | 207 | 3.2 | 16.1 | 0.00 | 0.00 | 0.00 | 62 | 1008.6 |
| 20260504090117 | 11 | 0 | 1.6 | 11.3 | 0.00 | 0.00 | 0.00 | 68 | 1010.7 |
| 20260504081555 | 10 | 0 | 1.6 | 12.9 | 0.00 | 0.00 | 0.00 | 68 | 1010.9 |
| 20260504044601 | 11 | 157 | 0.0 | 9.7 | 0.00 | 0.00 | 0.00 | 64 | 1012.8 |
| 20260504043050 | 11 | 0 | 0.0 | 6.4 | 0.00 | 0.00 | 0.00 | 64 | 1012.9 |